This is the latest recevied weather packets stored in our database for station/object N5YHM-13. If no packets are shown the sender has not sent any weather packets the latest 10 day(s).
| Time | Temp. | Humidity | Pressure | Rain* | Wind** | Luminosity | Snow |
|---|---|---|---|---|---|---|---|
| 1787516858 | 32.78° C | 79% | 1016 hPa | 0 mm | - | 21 W/m² | - |
| 1787516554 | 32.78° C | 79% | 1016.1 hPa | 0 mm | - | 26 W/m² | - |
| 1787516248 | 32.78° C | 79% | 1016 hPa | 0 mm | - | 23 W/m² | - |
| 1787515943 | 32.78° C | 80% | 1016.2 hPa | 0 mm | - | 22 W/m² | - |
| 1787515639 | 32.78° C | 79% | 1016.1 hPa | 0 mm | - | 21 W/m² | - |
| 1787515334 | 32.22° C | 80% | 1016.3 hPa | 0 mm | - | 21 W/m² | - |
| 1787515029 | 31.67° C | 83% | 1016 hPa | 0 mm | - | 21 W/m² | - |
| 1787514727 | 31.67° C | 84% | 1016.2 hPa | 0 mm | - | 20 W/m² | - |
| 1787514427 | 31.67° C | 84% | 1016.4 hPa | 0 mm | - | 19 W/m² | - |
| 1787514121 | 31.67° C | 84% | 1016.4 hPa | 0 mm | - | 17 W/m² | - |
| 1787513816 | 31.67° C | 82% | 1016.3 hPa | 0 mm | - | 14 W/m² | - |
| 1787513512 | 31.67° C | 83% | 1016.6 hPa | 0 mm | - | 12 W/m² | - |
| 1787513208 | 31.67° C | 82% | 1016.8 hPa | 0 mm | - | 10 W/m² | - |
| 1787512904 | 31.67° C | 80% | 1016.9 hPa | 0 mm | - | 8 W/m² | - |
| 1787512600 | 32.22° C | 79% | 1016.6 hPa | 0 mm | - | 8 W/m² | - |
| 1787512295 | 32.22° C | 78% | 1016.7 hPa | 0 mm | - | 8 W/m² | - |
| 1787511991 | 32.78° C | 76% | 1016.8 hPa | 0 mm | - | 8 W/m² | - |
| 1787511686 | 33.33° C | 73% | 1016.6 hPa | 0 mm | - | 9 W/m² | - |
| 1787511384 | 33.33° C | 73% | 1016.7 hPa | 0 mm | - | 15 W/m² | - |
| 1787511079 | 33.89° C | 73% | 1016.8 hPa | 0 mm | - | 29 W/m² | - |
| 1787510773 | 33.89° C | 73% | 1016.9 hPa | 0 mm | - | 38 W/m² | - |
| 1787510469 | 33.89° C | 69% | 1016.9 hPa | 0 mm | - | 169 W/m² | - |
| 1787510164 | 33.33° C | 70% | 1017.1 hPa | 0 mm | - | 46 W/m² | - |
| 1787509861 | 32.78° C | 77% | 1017.2 hPa | 0 mm | - | 51 W/m² | - |
| 1787509556 | 32.78° C | 78% | 1017.5 hPa | 0 mm | - | 36 W/m² | - |
* Rain latest hour (hover to see other rain measurements)
** Current wind speed in m/s (hover to see current wind gust speed)